Regional Weather Roundup
Issued by NWS Midland/Odessa, TX

Skip options and go directly to product.
Home | Oldest Version | Previous Version | Current Version | All | Text Only | Save Text | Print | Product List | Glossary Off

Skip product version selection by date and time.   

543
ASUS44 KMAF 311410
RWRMAF
MIDLAND AREA WEATHER ROUNDUP
NATIONAL WEATHER SERVICE MIDLAND TX
900 AM CDT TUE MAY 31 2016

...IN SOUTHWEST TEXAS AND SOUTHEAST NEW MEXICO...

CITY           SKY/WX    TMP DP  RH WIND       PRES   REMARKS
ALPINE         CLOUDY    58  57  97 CALM      30.12S THUNDER
ANDREWS        FAIR      68  63  82 SW6       29.96S
ARTESIA        MOSUNNY   64  63  94 SE5       29.97S
BIG SPRING     SUNNY     70  65  83 W3        29.97R
CARLSBAD       CLOUDY    64  60  87 N3        29.93F
DRYDEN           N/A     73  64  73 NW15      29.94R
FORT STOCKTON  NOT AVBL
GUAD PASS      NOT AVBL
HOBBS          SUNNY     64  57  77 S13       29.98R
MARFA          TSTM      58  56  93 W7        30.12R
MIDLAND AIRPK  PTSUNNY   73  64  74 SW6       29.96R
MIDLAND INTL   CLOUDY    72  63  73 SW6       29.95R
ODESSA         CLOUDY    70  61  73 S5        29.96S
PECOS          CLOUDY    67  60  78 SW3       29.95F
PRESIDIO       PTSUNNY   64  63  94 N8        30.00R
SEMINOLE       MOSUNNY   67  63  86 SW8       29.97R
SNYDER           N/A     67  64  91 W5        29.95R
WINK           CLOUDY    67  58  72 CALM      29.91F
$$
...OTHER STATIONS IN TEXAS...

CITY           SKY/WX    TMP DP  RH WIND       PRES   REMARKS
ABILENE        MOSUNNY   74  66  76 S5        29.93R
AMARILLO       SUNNY     60  53  77 E18       30.03R
AUSTIN         CLOUDY    77  74  90 S7        29.90S
BROWNSVILLE    PTSUNNY   83  75  77 SE17G24   29.87F
CORPUS CHRISTI PTSUNNY   83  76  79 SE12      29.87S
DALLAS FTW     PTSUNNY   78  71  79 S14       29.89R
DEL RIO        CLOUDY    74  70  87 E9        29.86S
EL PASO        MOSUNNY   66  59  78 S8        29.98R
HOUSTON INT    MOSUNNY   78  72  81 S7        29.93R
LUBBOCK        CLOUDY    64  57  78 E7        29.98R
SAN ANGELO     CLOUDY    73  66  78 NW6       29.93R
SAN ANTONIO    CLOUDY    77  73  87 SE10      29.91R
WACO           CLOUDY    77  71  82 S10       29.91R
WICHITA FALLS  NOT AVBL
$$
...OTHER LOCATIONS IN NEW MEXICO...

CITY           SKY/WX    TMP DP  RH WIND       PRES   REMARKS
ALAMAGORDO     MOSUNNY   64  48  55 NE5       30.01R
ALBUQUERQUE    MOSUNNY   66  40  38 SW8       30.04S
CANNON AFB     CLOUDY    60  56  86 SW2       29.99R
CLOVIS         CLOUDY    63  52  67 SW7       29.99R
HOLLOMAN AFB   SUNNY     68  51  54 SW5       29.99R
ROSWELL        MOSUNNY   65  52  62 SE3       29.96R
RUIDOSO          N/A     57  41  54 W6        30.13S
SANTA FE       SUNNY     63  30  28 NE7       30.10R
TRUTH OR CONSE SUNNY     63  51  65 S3        30.02R
TUCUMCARI      CLOUDY    65  51  60 CALM      29.98R
$$

USA.gov is the U.S. government's official web portal to all federal, state and local government web resources and services.